Location: Aydie
(43.5695°N, 0.1043°W)
Time: 23:45:52
(UTC+00:00)

Cosmos 676 Rocket - Pass Details

Date: 17 November 2025
Orbit: 750 x 779 km, 74.0° (Epoch: 11 December)

Event Time Altitude Azimuth Distance (km) Brightness Sun altitude
Rises 18:33:23 0° 197° (SSW) 3,246 7.6 -21.6°
Reaches altitude 10° 18:35:45 10° 197° (SSW) 2,323 6.8 -22.0°
Maximum altitude 18:41:03 85° 108° (ESE) 786 3.9 -23.0°
Enters shadow 18:43:15 36° 23° (NNE) 1,208 4.7 -23.4°
